This is the latest recevied weather packets stored in our database for station/object N4CRH-13. If no packets are shown the sender has not sent any weather packets the latest 10 day(s).
| Time | Temp. | Humidity | Pressure | Rain* | Wind** | Luminosity | Snow |
|---|---|---|---|---|---|---|---|
| 1778088418 | -1.67° C | 99% | 1296.5 hPa | 0 mm | - | 141 W/m² | - |
| 1778088115 | -1.11° C | 99% | 1296.7 hPa | 0 mm | - | 213 W/m² | - |
| 1778087812 | -1.67° C | 99% | 1296.5 hPa | 0 mm | - | 240 W/m² | - |
| 1778087510 | -1.11° C | 99% | 1296.3 hPa | 0 mm | - | 260 W/m² | - |
| 1778087207 | -1.67° C | 99% | 1296 hPa | 0 mm | - | 237 W/m² | - |
| 1778086903 | -1.11° C | 99% | 1295.9 hPa | 0 mm | - | 174 W/m² | - |
| 1778086602 | -1.11° C | 99% | 1295.7 hPa | 0 mm | - | 184 W/m² | - |
| 1778086298 | -1.67° C | 99% | 1295.7 hPa | 0 mm | - | 212 W/m² | - |
| 1778085995 | -2.22° C | 99% | 1295.9 hPa | 0 mm | - | 179 W/m² | - |
| 1778085693 | -2.22° C | 99% | 1296 hPa | 0 mm | - | 173 W/m² | - |
| 1778085389 | -2.22° C | 99% | 1295.9 hPa | 0 mm | - | 161 W/m² | - |
| 1778085089 | -2.22° C | 99% | 1295.8 hPa | 0 mm | - | 144 W/m² | - |
| 1778084785 | -2.22° C | 99% | 1295.8 hPa | 0 mm | - | 173 W/m² | - |
| 1778084482 | -2.22° C | 99% | 1295.8 hPa | 0 mm | - | 154 W/m² | - |
| 1778049743 | -2.22° C | 99% | 1292.8 hPa | 0 mm | - | 0 W/m² | - |
| 1778049441 | -2.22° C | 99% | 1292.8 hPa | 0 mm | - | 0 W/m² | - |
| 1778049138 | -2.22° C | 99% | 1292.8 hPa | 0 mm | - | 0 W/m² | - |
| 1778048836 | -2.22° C | 99% | 1292.8 hPa | 0 mm | - | 0 W/m² | - |
| 1778048533 | -2.22° C | 99% | 1292.6 hPa | 0 mm | - | 0 W/m² | - |
| 1778048229 | -2.22° C | 99% | 1292.6 hPa | 0 mm | - | 0 W/m² | - |
| 1778047927 | -2.22° C | 99% | 1292.6 hPa | 0 mm | - | 0 W/m² | - |
| 1778047625 | -2.22° C | 99% | 1292.9 hPa | 0 mm | - | 0 W/m² | - |
| 1778047321 | -2.22° C | 99% | 1292.4 hPa | 0 mm | - | 0 W/m² | - |
| 1778047018 | -2.22° C | 99% | 1292.6 hPa | 0 mm | - | 0 W/m² | - |
| 1778046715 | -2.22° C | 99% | 1292.4 hPa | 0 mm | - | 0 W/m² | - |
* Rain latest hour (hover to see other rain measurements)
** Current wind speed in m/s (hover to see current wind gust speed)